Regional Weather Roundup
Issued by NWS Pendleton, OR

Home | Current Version | Previous Version | Text Only | Print | Product List | Glossary On
Versions: 1 2 3 4 5 6 7 8 9 10 11 12 13 14 15 16 17 18 19 20 21 22 23 24 25 26 27 28 29 30 31 32 33 34 35 36 37 38 39 40 41 42 43 44 45 46 47 48 49 50
656
ASUS46 KPDT 052325
RWRPDT
PENDLETON REGIONAL WEATHER ROUNDUP
NATIONAL WEATHER SERVICE PENDLETON OREGON
300 PM PST FRI FEB 5 2016

NOTE: FAIR INDICATES FEW OR NO CLOUDS BELOW 12,000 FEET WITH NO
SIGNIFICANT WEATHER AND/OR OBSTRUCTIONS TO VISIBILITY.

# INDICATES UNOFFICIAL STATION AND DATA

WAZ520-060010-
EAST SLOPES OF WASHINGTON CASCADES

CITY            SKY/WX      TMP DP  RH  WIND    PRES   REMARKS
#BUMPING DAM    N/A         36  N/A N/A CALM    N/A
#CLE ELUM HS    N/A         35  34  96  CALM    30.12F
#CLE ELUM 2NW   N/A         34  34  100 SE2     N/A
#CLE ELUM LAKE  N/A         36  35  96  CALM    30.21F
#CLIFFDEL 2NW   N/A         38  37  96  CALM    N/A
#GLENWOOD       N/A         36  35  96  CALM    30.26F
#MANASTASH CYN  N/A         37  31  79  CALM    30.11F
#NELSON         N/A         N/A N/A N/A CALM    30.13F
#NELSON 3SW     N/A         34  33  96  CALM    30.41F
#NILE           N/A         39  35  85  CALM    29.46F
#RONALD 2NW     N/A         36  N/A N/A NE2     29.98F
#TEANAWAY 4NE   N/A         35  35  100 CALM    N/A
#TROUT LAKE 1NE N/A         44  41  89  CALM    30.24F
#TROUT LAKE 1E  N/A         39  39  100 CALM    30.14F
$$

WAZ521-060010-
SIMCOE HIGHLANDS

CITY            SKY/WX      TMP DP  RH  WIND    PRES   REMARKS
#BICKLETON HS   N/A         47  24  40  W3      N/A
#CENTERVILLE 1SWN/A         47  37  68  CALM    30.20F
#GOLDENDALE     N/A         50  34  54  W1      N/A
#GOLDENDALE 1NE N/A         50  24  36  W2      N/A
#GOODNOE HILLS  N/A         51  38  61  SW3     30.10F
#LYLE 6NE       N/A         40  39  96  CALM    30.21F
$$

WAZ026-060010-
KITTITAS VALLEY

CITY            SKY/WX      TMP DP  RH  WIND    PRES   REMARKS
ELLENSBURG AP   PTCLDY      35  30  82  CALM    30.19F HAZE
#ELLENSBURG CWU N/A         34  31  89  CALM    30.22F
#ELLENSBURG 3NE N/A         32  31  96  CALM    30.19F
#ELLENSBURG     N/A         37  36  96  CALM    N/A
#ELLENSBURG 1E  N/A         34  N/A N/A CALM    N/A
#KITTITAS 4N    N/A         35  30  82  CALM    30.20F
#KITTITAS 3S    N/A         31  30  96  CALM    30.27F
#THORP 6N       N/A         33  32  96  E8      30.25F
$$

WAZ027-060010-
YAKIMA VALLEY

CITY            SKY/WX      TMP DP  RH  WIND    PRES   REMARKS
SUNNYSIDE AP    PTCLDY      41  38  89  CALM    30.23F
YAKIMA AIRPORT  CLOUDY      45  36  70  W7      30.21F
YAKIMA-VAGABOND MOSUNNY     42  36  79  N2      30.19F
#DONALD 2NE     N/A         44  33  65  CALM    29.05F
#GRANDVIEW      N/A         42  39  89  CALM    30.26F
#MABTON         N/A         40  40  100 W1      30.22F
#MOXEE 2E       N/A         42  30  62  CALM    30.14F
#NACHES 2SW     N/A         43  38  82  CALM    30.31S
#OUTLOOK DOT    N/A         N/A N/A N/A SW1     N/A
#SELAH 8E       N/A         39  36  89  W7      N/A
#TERRACE HTS    N/A         44  39  82  CALM    30.22F
#TOPPENISH      N/A         41  40  96  CALM    30.16F
#WEST VALLEY    N/A         43  38  82  CALM    30.23F
#W YAKIMA       N/A         43  37  79  CALM    30.23F
#WHITE SWAN 5E  N/A         44  40  86  CALM    30.26F
#WILEY CITY 3W  N/A         41  34  76  CALM    30.16F
$$

WAZ028-060010-
LOWER COLUMBIA BASIN...WASHINGTON

CITY            SKY/WX      TMP DP  RH  WIND    PRES   REMARKS
HANFORD         CLOUDY      42  37  82  NW8     30.23F
PASCO           MOCLDY      50  40  68  CALM    30.24F
PROSSER AWOS    N/A         43  41  93  NW2     30.25F
RICHLAND AWOS   CLOUDY      50  41  71  W5      30.23F
#BENTON CITY    N/A         47  40  76  CALM    30.15F
#CONNELL 5N     N/A         48  44  86  CALM    30.24F
#ELTOPIA 6NW    N/A         47  44  89  CALM    29.17F
#KAHLOTUS       N/A         56  38  51  W6      30.24F
#KENNEWICK 3S   N/A         49  41  74  CALM    30.24F
#PATERSON       N/A         48  40  74  NW1     30.23F
#PROSSER        N/A         43  38  82  CALM    30.25F
#SAGEMOOR 2W    N/A         51  45  80  CALM    30.07F
#TOUCHET 2S     N/A         56  39  53  S13     30.19F
#WEST PASCO     N/A         50  42  74  CALM    30.24F
$$

WAZ029-060010-
FOOTHILLS OF THE BLUES...WASHINGTON

CITY            SKY/WX      TMP DP  RH  WIND    PRES   REMARKS
WALLA WALLA AP  CLOUDY      58  30  34  S15G24  30.22F
#CLYDE 6NW      N/A         55  37  51  S13     30.24F
#DAYTON SCHOOL  N/A         56  28  34  E6      30.24F
#LOWDEN 2SE     N/A         58  39  49  S9      30.19F
#PLEASANT VIEW 1N/A         54  38  55  S7      30.29F
#PRESCOTT       N/A         59  38  45  CALM    30.24F
#WHITMAN COLLEGEN/A         59  33  37  E10     30.28F
#WAITSBURG 5S   N/A         54  35  48  S9      30.34F
#WAITSBURG 8N   N/A         54  11  18  S8      30.06F
#WALLA WALLA 5E N/A         59  30  33  S16     N/A
#WALLA WALLA U  N/A         59  35  40  SE2     30.24F
#WHITMAN MISSIONN/A         57  37  47  CALM    30.24F
$$

WAZ030-060010-
BLUE MOUNTAINS...WASHINGTON

CITY            SKY/WX      TMP DP  RH  WIND    PRES   REMARKS
#DIXIE 5SE      N/A         48  29  47  E21G32  30.16F WCI 41
#SKI BLUEWOOD   N/A         38  32  79  SW5     30.27S
$$

ORZ009-041-WAZ024-060010-
COLUMBIA RIVER GORGE

CITY            SKY/WX      TMP DP  RH  WIND    PRES   REMARKS
HOOD RIVER AP   CLOUDY      46  43  89  CALM    30.23F
THE DALLES AP   CLOUDY      44  39  82  E3      30.25F
#ARLINGTON AIRPON/A         44  40  86  CALM    30.24F
#ARLINGTON HS   N/A         44  40  86  CALM    30.16S
#CELILO DOT     N/A         44  38  79  CALM    N/A
#LYLE           N/A         44  42  93  CALM    30.25F
#MARYHILL 2W    N/A         43  42  96  S1      N/A
#MOSIER 1S      N/A         44  43  96  CALM    30.23F
#RUFUS DOT      N/A         45  41  86  W14     N/A    WCI 39

$$

ORZ510-060010-
NORTH CENTRAL OREGON

CITY            SKY/WX      TMP DP  RH  WIND    PRES   REMARKS
#CHENOWITH 1W   N/A         41  40  96  CALM    N/A
#COW CYN RST AREN/A         49  31  50  SW6     N/A
#DUFUR 9E       N/A         49  34  56  SW6     30.27F
#GRASS VALLEY 1SN/A         48  38  68  SW2     30.27F
#KENT DOT       N/A         52  23  32  N8      N/A
#MAUPIN SCHOOL  N/A         53  39  59  CALM    30.23F
#MORO SCHOOL    N/A         49  40  71  S2      30.20F
#SHANIKO 5WSW   N/A         47  21  35  S14     N/A    WCI 41
#SHANIKO 4NW    N/A         46  30  53  SW3     30.22F
#TYGH VALLEY 2NEN/A         54  36  50  CALM    30.22F
#WAPANITIA AIRPON/A         52  34  50  SW7     30.24F
#WASCO DOT      N/A         46  40  79  NW3     N/A
#WASCO 5NE      N/A         47  42  83  NE1     30.24F
$$

ORZ511-060010-
CENTRAL OREGON

CITY            SKY/WX      TMP DP  RH  WIND    PRES   REMARKS
BEND AIRPORT    MOCLDY      50  27  41  SE7     30.27F
MADRAS AIRPORT  CLOUDY      54  30  40  S15     30.24F
PRINEVILLE AP   CLOUDY      48  30  49  S16     30.26F WCI 42
REDMOND AIRPORT CLOUDY      51  29  42  S9      30.25F
#ASHWOOD SCHOOL N/A         53  32  45  CALM    30.18S
#BEND 6E        N/A         52  24  33  CALM    30.26F
#BEND 1SW       N/A         49  29  46  SW3     N/A
#BEND-KIM LN    N/A         52  29  41  S6      30.22F
#LAKE BILLY CHINN/A         52  N/A N/A E5      30.26F
#MADRAS         N/A         53  29  39  S13     N/A
#POWELL BUTTE 3EN/A         49  30  48  SE6     N/A
#PRINEVILLE 3N  N/A         50  34  54  E3      30.32F
#WARM SPRINGS   N/A         57  34  42  E5      30.19F

$$


ORZ509-060010-
EAST SLOPES OF OREGON CASCADES

CITY            SKY/WX      TMP DP  RH  WIND    PRES   REMARKS
SISTERS AWOS    N/A         45  32  60  CALM    30.19F
#BLUE BOX PASS  N/A         41  N/A N/A CALM    N/A
#BLACK BUTTE RNCN/A         50  32  50  SW1     30.30F
#CAMP SHERMAN   N/A         49  34  56  CALM    30.34F
#LA PINE DOT    N/A         48  17  29  SW2     N/A
#LA PINE 4NW    N/A         47  27  45  CALM    30.43F
#LAVA BUTTE DOT N/A         46  20  35  S1      N/A
#SISTERS AIRPOR N/A         45  37  73  CALM    30.17S
#SISTERS ODOT   N/A         45  N/A N/A NW1     N/A
#SISTERS 3N     N/A         44  31  60  CALM    30.21F
#SUNRIVER       N/A         48  28  46  S3      30.37F
#TUMALO 3W      N/A         52  29  41  S8      30.17F
#WANOGA BUTTE D N/A         38  27  64  CALM    N/A

$$

ORZ044-060010-
LOWER COLUMBIA BASIN...OREGON

CITY            SKY/WX      TMP DP  RH  WIND    PRES   REMARKS
HERMISTON       MOCLDY      52  41  66  CALM    30.22F
#BOARDMAN SCHOOLN/A         50  41  71  CALM    30.23F
#BOARDMAN 8SW   N/A         52  44  74  CALM    30.23F
#ECHO 8SW       N/A         52  41  66  E1      30.22F
#I-84 EX 198 DOTN/A         53  40  61  CALM    N/A
#IONE SCHOOL    N/A         51  34  52  W1      30.19F
#IRRIGON 4NW    N/A         46  43  89  W3      N/A
#UMATILLA SCHOOLN/A         50  45  83  N3      30.22F
#UMATILLA       N/A         51  38  61  CALM    30.16F
$$

ORZ507-060010-
NORTHERN FOOTHILLS OF THE BLUES

CITY            SKY/WX      TMP DP  RH  WIND    PRES   REMARKS
PENDLETON AIRPT MOCLDY      57  33  40  SE9     30.22F
#ADAMS 3WNW     N/A         51  39  63  E3      30.25F
#ATHENA         N/A         51  34  52  E7      30.27F
#CAYUSE         N/A         53  34  48  SE35G51 30.20F
#HELIX 3N       N/A         49  36  61  SE20G30 30.18F WCI 42
#HOLDMAN 5SE    N/A         43  40  89  CALM    30.33S
#HOLDMAN 6E     N/A         53  38  57  S3      30.05F
#M-F GROVE ELEM N/A         55  30  38  SE5     30.20F
#M-FREEWATER 5SEN/A         53  34  48  E18G29  30.22F
#PDT AQUATIC CTRN/A         59  35  40  CALM    30.22F
#PDT SUNRIDGE   N/A         57  34  42  SE7     30.22F
#PENDLETON 7NW  N/A         56  41  57  SE5     26.60S
#PILOT ROCK     N/A         57  26  30  SE17G29 30.18F
#TUTUILLA       N/A         56  34  43  CALM    30.22F
#UMAPINE 2E     N/A         56  38  51  SE12    30.20F
#WESTON SCHOOL  N/A         52  29  41  S10G26  30.17F

$$

ORZ508-060010-
SOUTHERN FOOTHILLS OF THE BLUES

CITY            SKY/WX      TMP DP  RH  WIND    PRES   REMARKS
LEXINGTON       CLOUDY      57  34  42  W13     30.24F
#CONDON SCHOOL  N/A         53  29  39  S15     30.16S
#CONDON 5W      N/A         49  27  42  S8      30.19S
#FOSSIL SCHOOL  N/A         53  29  39  E3      30.16F
#HEPPNER EOC    N/A         56  27  33  SE9G26  30.14F
#HEPPNER 4NE    N/A         53  29  39  SE5     30.22F
#LEXINGTON 2SE  N/A         61  29  30  S9      30.17F
#MIKKALO        N/A         50  36  58  CALM    30.30F
#OLEX 4N        N/A         50  40  68  CALM    30.21R
#RUGGS 5NE      N/A         53  27  36  N9      30.33F
#RUGGS 2SW      N/A         51  29  42  S18G32  30.26F

$$

ORZ502-503-060010-
BLUE MOUNTAINS

CITY            SKY/WX      TMP DP  RH  WIND    PRES   REMARKS
MEACHAM         PTCLDY      38  31  76  CALM    30.29F
#BATTLE MTN DOT N/A         42  30  62  S13     N/A    WCI 35
#HEPPNER 15SE   N/A         46  28  49  S6      30.15F
#LADD CYN SMT   N/A         36  26  67  SE16    N/A    WCI 26
#LADD CREEK ODOTN/A         38  31  76  S10     N/A
#LONG CREEK HS  N/A         47  30  51  CALM    N/A
#N POWDER DOT   N/A         38  30  73  SE16    N/A    WCI 29
#PIKES PEAK     N/A         46  26  45  S28G35  27.99S WCI 37
#TOLLGATE       N/A         32  31  96  S5      30.11S
#TROY SCHOOL    N/A         49  38  66  CALM    30.26F
#UKIAH          N/A         47  33  58  CALM    30.29F
#WESTON 4E      N/A         43  32  65  E15     30.28F WCI 36
$$

ORZ505-060010-
JOHN DAY BASIN

CITY            SKY/WX      TMP DP  RH  WIND    PRES   REMARKS
JOHN DAY        MOCLDY      50  26  39  S7      30.32F
#DAYVILLE SCHOOLN/A         52  26  36  S7      30.25F
#MITCHELL       N/A         49  32  52  E7      30.40S
#MITCHELL 8NW   N/A         48  27  44  SW13G24 30.47S WCI 43
#MONUMENT HS    N/A         50  37  61  E2      30.19F
#MT. VERNON 5SE N/A         45  27  49  SE3     30.28F
#SPRAY SCHOOL   N/A         56  N/A N/A CALM    N/A
#WINLOCK        N/A         50  27  41  CALM    30.22F
$$

ORZ506-060010-
OCHOCO AND JOHN DAY HIGHLANDS

CITY            SKY/WX      TMP DP  RH  WIND    PRES   REMARKS
#HORSE RIDGE DO N/A         48  23  37  SE16    N/A    WCI 42
#KEYES SMT DOT  N/A         42  26  53  S28G35  N/A    WCI 32
#PAULINA SCHOOL N/A         42  30  62  CALM    30.25F
#PINE MTN OBS   N/A         38  25  59  S15     N/A    WCI 29
#PRAIRIE CITY   N/A         52  24  33  CALM    30.29F
#SENECA         N/A         41  N/A N/A E1      N/A
#SENECA 9NW     N/A         38  28  67  CALM    30.49S
$$

ORZ049-060010-
GRANDE RONDE VALLEY

CITY            SKY/WX      TMP DP  RH  WIND    PRES   REMARKS
LA GRANDE       CLOUDY      41  28  59  S18G28  30.36F WCI 32
#COVE           N/A         46  37  71  S6      30.35F
#COVE SCHOOL    N/A         46  34  63  S1      30.34S
#COVE 6NW       N/A         41  33  73  S13     30.26F WCI 34
#ELGIN 3N       N/A         39  27  62  S16     30.30F WCI 30
#ELGIN 1E       N/A         41  32  70  CALM    N/A
#IMBLER SCHOOL  N/A         37  31  79  S6      30.29S
#ISLAND CITY 4N N/A         50  45  83  CALM    30.16F
#LADD CYN DOT   N/A         40  31  70  S29     N/A    WCI 29
#UNION 1S       N/A         41  33  73  SE10    30.39R
$$

ORZ050-060010-
WALLOWA COUNTY

CITY            SKY/WX      TMP DP  RH  WIND    PRES   REMARKS
JOSEPH AIRPORT  FOG         N/A N/A N/A CALM    30.34F VSB 1/4
#ENTERPRISE AP  N/A         30  28  92  CALM    30.24F
#ENTERPRISE HS  N/A         31  30  96  CALM    30.32F
#IMNAHA SCHOOL  N/A         52  32  46  S14G26  30.31F
#JOSEPH 3N      N/A         29  25  85  CALM    30.33S
#JOSEPH 3W      N/A         28  23  81  CALM    30.12F
#LOSTINE        N/A         33  30  89  CALM    30.28F
#MT HOWARD 8000 N/A         30  17  58  S10G26  30.27S
#PROMISE 1S     N/A         36  32  85  NE1     30.52F
#WALLOWA SCHOOL N/A         36  32  85  CALM    30.30F



$$



USA.gov is the U.S. government's official web portal to all federal, state and local government web resources and services.